Regional Weather Roundup
Issued by NWS

Home | Current Version | Previous Version | Graphics & Text | Print | Product List | Glossary On
Versions: 1 2 3 4 5 6 7 8 9 10 11 12 13 14 15 16 17 18 19 20 21 22 23 24 25 26 27 28 29 30 31 32 33 34 35 36 37 38 39 40 41 42 43 44 45 46 47 48 49 50
000
ASUS43 KOAX 280410
RWRNE

WEATHER ROUNDUP FOR NEBRASKA
NATIONAL WEATHER SERVICE OMAHA NE
1000 PM CST SAT DEC 27 2014

NOTES: SATELLITE DATA IS BEING USED TO AUGMENT CLOUD COVER ABOVE
       12000 FEET.
       "FAIR" INDICATES FEW OR NO CLOUDS BELOW 12,000 FEET WITH NO
       SIGNIFICANT WEATHER AND/OR OBSTRUCTIONS TO VISIBILITY.

  * THESE STATIONS DO NOT REPORT WEATHER SUCH AS RAIN...SNOW OR FOG.

NEZ001>004-019>022-054>056-280500-
NEBRASKA PANHANDLE

CITY           SKY/WX    TMP DP  RH WIND       PRES   REMARKS
SCOTTSBLUFF    PTCLDY     5   2  87 N6        30.09S WCI  -6
ALLIANCE       PTCLDY     1  -4  79 W10       30.07S WCI -15
CHADRON        CLEAR      7   1  76 SW9       30.09S WCI  -7
KIMBALL        PTCLDY     1  -3  80 W9        30.05S WCI -14
SIDNEY         PTCLDY     4  -2  76 NW12      30.09F WCI -12
$$

NEZ057>060-069>072-079>082-280500-
SOUTHWEST NEBRASKA

CITY           SKY/WX    TMP DP  RH WIND       PRES   REMARKS
NORTH PLATTE   PTCLDY     2   0  91 NW6       30.15F WCI  -9
IMPERIAL       PTCLDY    10   4  76 W9        30.15S WCI  -3
LEXINGTON      CLEAR      7   4  87 W6        30.18S WCI  -3
MCCOOK         PTCLDY    10   7  87 SW9       30.19S WCI  -3
OGALLALA       PTCLDY    -1  -3  88 W8        30.14S WCI -15
$$

NEZ005>010-023>029-035>040-094-280500-
NORTH CENTRAL NEBRASKA

CITY           SKY/WX    TMP DP  RH WIND       PRES   REMARKS
VALENTINE      CLEAR     11   5  77 W9        30.09S WCI  -2
AINSWORTH      CLEAR     13   7  76 W8        30.09R WCI   2
BROKEN BOW     CLEAR     17   9  70 W10       30.13F WCI   5
O`NEILL        PTCLDY    10   8  93 SW6       30.10F WCI   0
ORD            CLEAR      7   4  87 NW3       30.14S
THEDFORD       CLEAR     14   8  78 W5        30.10F WCI   6
$$

NEZ041-046>049-061>064-073>077-083>087-280500-
SOUTH CENTRAL NEBRASKA

CITY           SKY/WX    TMP DP  RH WIND       PRES   REMARKS
GRAND ISLAND     N/A     17  12  80 SW8       30.19S WCI   7
AURORA         CLEAR     14  11  87 SW6       30.18F WCI   5
HASTINGS       CLEAR     16  11  80 SW7       30.17F WCI   6
HEBRON         CLEAR     19  13  79 W3        30.24F
HOLDREGE       CLEAR     16  11  80 SW5       30.19R WCI   9
KEARNEY *      CLEAR     16  10  79 W6        30.18R WCI   7
YORK           CLEAR     14  10  85 SW7       30.20S WCI   4
$$

NEZ011>018-030>034-042>045-280500-
NORTHEAST NEBRASKA

CITY           SKY/WX    TMP DP  RH WIND       PRES   REMARKS
NORFOLK        CLEAR     14  10  84 SW12      30.15F WCI   0
ALBION         PTCLDY    12   8  84 CALM      30.16S
BLAIR          CLEAR     16  12  85 S7        30.21S WCI   6
COLUMBUS *     CLEAR      9   0  66 CALM      30.19F
FREMONT        CLEAR     17  14  87 S3        30.21F
TEKAMAH        CLEAR     13   9  84 S6        30.22F WCI   4
WAYNE          CLEAR     10   6  87 S7        30.16F WCI  -2
$$

NEZ050>053-065>068-078-088>093-280500-
SOUTHEAST NEBRASKA

CITY           SKY/WX    TMP DP  RH WIND       PRES   REMARKS
LINCOLN        CLEAR     18  13  80 S3        30.25S
OMAHA EPPLEY   CLEAR     18  15  88 SE6       30.25S WCI  10
BEATRICE       CLEAR     15  12  85 W3        30.24F
FALLS CITY     CLEAR     22  16  78 W6        30.27R WCI  14
NEBRASKA CITY  CLEAR     18  13  82 SW3       30.25S
PLATTSMOUTH    CLEAR     18  13  82 SW5       30.23S WCI  11
$$

NEZ044-045-051>053-067-280500-
OMAHA AREA

CITY           SKY/WX    TMP DP  RH WIND       PRES   REMARKS
OMAHA EPPLEY   CLEAR     18  15  88 SE6       30.25S WCI  10
BLAIR          CLEAR     16  12  85 S7        30.21S WCI   6
FREMONT        CLEAR     17  14  87 S3        30.21F
MILLARD        CLEAR     19  16  89 CALM      30.24S
OFFUTT AFB     CLEAR     16  14  89 CALM      30.24R
PLATTSMOUTH    CLEAR     18  13  82 SW5       30.23S WCI  11
WAHOO          FAIR      15  11  85 SW5       30.22F WCI   7
$$


USA.gov is the U.S. government's official web portal to all federal, state and local government web resources and services.